Location: Phoenix
(33.4480°N, 112.0730°W)
Time: 01:47:53
(UTC-07:00)

Daily predictions for brighter satellites

Satellite Brightness Start Highest point End
(mag) Time Altitude Azimuth Time Altitude Azimuth Time Altitude Azimuth
CZ-4C R/B 3.0 00:08:02 46° NNE 00:08:02 46° NNE 00:12:09 10° NNE
Cosmos 1844 Rocket 3.6 00:39:30 43° NNW 00:39:30 43° NNW 00:43:50 10° N
Cosmos 1634 Rocket 4.2 00:35:36 10° N 00:40:47 64° N 00:40:47 64° N
H-2A R/B 4.2 01:17:48 10° N 01:20:19 33° N 01:20:19 33° N
Cosmos 2278 Rocket 2.9 01:27:04 46° NW 01:27:04 46° NW 01:31:44 10° N
Nadezhda 4 Rocket 4.0 01:35:13 80° NE 01:35:13 80° NE 01:41:15 10° N
Cosmos 1833 Rocket 3.9 01:33:58 10° N 01:39:07 35° ENE 01:40:31 31° E
Cosmos 2297 3.9 01:46:52 69° N 01:46:52 69° N 01:51:52 10° NNE
SL-16 R/B 4.4 01:46:39 12° ESE 01:51:05 25° ENE 01:56:01 10° NNE
Cosmos 1733 Rocket 4.3 01:56:07 40° N 01:56:07 40° N 01:58:57 10° N
Cosmos 2150 Rocket 4.2 01:59:34 70° NE 01:59:34 70° NE 02:04:29 10° NNE
USA 267 4.1 01:57:09 10° ENE 02:02:57 34° SE 02:03:11 33° SE
Cosmos 2082 Rocket 2.4 01:58:39 10° NNW 02:04:14 64° ENE 02:04:46 60° E
Cosmos 44 4.1 02:10:25 41° NNW 02:10:25 41° NNW 02:13:53 10° NNE
ADEOS Rocket 3.7 02:02:46 10° NNE 02:10:14 61° E 02:12:01 48° SSE
Sich 1 Rocket 4.3 02:16:13 53° ENE 02:16:13 53° ENE 02:20:12 10° NNE
ATLAS 3B R/B 2.8 02:15:40 61° SW 02:17:05 78° WNW 02:24:24 10° NNE
Cosmos 44 Rocket 4.5 02:19:53 32° NW 02:19:53 32° NW 02:23:52 10° N
Exosat Rocket 4.3 02:13:43 10° NNW 02:19:33 76° ENE 02:23:03 34° SSE
Cosmos 2195 Rocket 4.3 02:22:49 72° SSW 02:23:30 84° W 02:29:48 10° N
Okean 3 4.2 02:20:27 10° N 02:24:11 48° ENE 02:24:11 48° ENE
Meteor 1-27 Rocket 3.9 02:20:01 10° NNW 02:25:43 59° W 02:25:43 59° W
AQUA 3.8 02:21:58 10° NNE 02:26:22 76° N 02:26:22 76° N
Cosmos 1627 Rocket 4.3 02:27:04 71° SW 02:27:43 80° W 02:33:51 10° N
ADEOS 4.4 02:23:08 10° NNE 02:28:03 40° E 02:29:01 37° SE
Cosmos 1674 Rocket 4.2 02:24:33 10° N 02:27:54 50° NNW 02:27:54 50° NNW
Cosmos 1937 Rocket 3.9 02:30:03 50° WNW 02:30:03 50° WNW 02:34:50 10° N
Cosmos 1908 Rocket 3.8 02:35:31 63° NNW 02:35:31 63° NNW 02:39:20 10° N
Milstar 3 4.2 02:33:10 32° SSE 02:35:07 35° SE 02:46:56 10° E
Timation 2 Rocket 4.0 02:31:33 10° NNW 02:37:41 75° ENE 02:41:04 29° SSE
Resurs 1-4 Rocket 2.2 02:34:54 10° NNE 02:40:12 67° ESE 02:41:09 56° SSE
COBE Rocket 3.7 02:36:01 10° N 02:40:51 82° WNW 02:41:00 80° WSW
Geosat 3.9 02:36:59 10° NNE 02:41:59 69° WNW 02:42:20 67° W
Okean 2 Rocket 3.8 02:42:49 43° ESE 02:43:22 46° E 02:47:35 10° NNE
SeaSat 1 2.7 02:45:35 53° WNW 02:45:35 53° WNW 02:49:47 10° NNW
OAO 1 4.3 02:44:54 72° SW 02:45:28 83° SSE 02:50:58 10° ENE
Cosmos 1378 Rocket 3.5 02:46:17 10° N 02:50:20 76° NW 02:50:20 76° NW
Delta 2 Rocket 3.6 02:53:06 73° S 02:53:06 73° S 02:57:43 10° ESE
Cosmos 1125 Rocket 3.7 02:51:59 48° SSE 02:53:14 64° ESE 02:58:29 10° NNE
IRS-1C 4.3 02:49:15 10° N 02:54:26 55° WNW 02:55:09 51° WSW
CZ-2D R/B 2.1 02:50:32 10° NNE 02:55:56 87° WNW 02:57:14 55° SSW
SL-08 R/B 3.7 02:57:17 46° W 02:57:17 46° W 03:01:32 10° NNW
Cosmos 1782 Rocket 3.4 02:57:32 75° WSW 02:57:41 76° W 03:02:10 10° N
TIMED 4.4 02:58:40 74° SSE 02:58:58 80° ESE 03:03:21 10° NNE
Cosmos 2026 Rocket 4.2 02:58:14 43° WSW 02:59:14 47° W 03:05:04 10° N
ARIANE 5 R/B 2.3 02:55:15 10° NNE 03:00:15 87° W 03:01:18 57° SSW
Spot 4 Rocket 4.0 02:57:44 10° N 03:02:51 67° WNW 03:03:51 54° SW
Cosmos 1553 Rocket 4.0 02:58:29 10° N 03:04:54 88° E 03:08:29 29° S
UNKNOWN OBJECT B 3.3 03:01:31 10° NNE 03:05:07 46° E 03:05:36 43° SE
H-2A R/B 4.2 02:12:37 10° WSW 03:06:16 68° S 03:12:56 10° E
USA 238 DEB 4.3 03:06:09 32° WSW 03:08:53 47° NW 03:15:35 10° NNE
USA 238 4.2 03:06:15 32° WSW 03:08:59 47° NW 03:15:42 10° NNE
IRS-1D 3.6 03:05:28 10° N 03:10:28 61° WNW 03:11:33 48° WSW
PSLV R/B 3.7 03:13:23 55° E 03:13:23 55° E 03:16:05 10° ENE
Centaur D AC-25 4.1 02:43:49 10° WSW 03:13:31 62° S 03:18:54 10° ESE
Cosmos 1346 4.2 03:11:13 10° N 03:13:09 38° NNE 03:13:09 38° NNE
Meteor 1-18 Rocket 4.1 03:10:07 10° N 03:15:41 87° E 03:19:04 25° S
Meteor 1-20 Rocket 4.2 03:14:39 40° SSW 03:16:47 73° W 03:22:38 10° N
Cosmos 1943 Rocket 2.9 03:14:38 24° SSE 03:17:42 47° ESE 03:23:04 10° NNE
Okean O Rocket 4.2 03:16:16 10° ENE 03:18:38 14° E 03:21:00 10° SE
Cosmos 1437 3.2 03:16:05 10° NNW 03:18:38 50° NW 03:18:38 50° NW
Cosmos 2369 Rocket 2.1 03:18:13 40° SSW 03:20:19 83° WNW 03:25:59 10° NNE
Cosmos 724 4.4 03:17:55 38° SW 03:20:22 70° WNW 03:26:33 10° NNE
UNK 3.9 03:21:08 46° SW 03:21:49 50° W 03:26:22 10° NNW
Meteor 2-11 Rocket 4.4 03:15:57 10° NNW 03:22:03 67° W 03:25:15 29° SSW
Cosmos 1833 Rocket 3.8 03:18:15 10° NW 03:22:09 25° W 03:22:09 25° W
Cosmos 405 Rocket 3.4 03:19:14 10° N 03:23:08 54° E 03:25:28 21° SSE
Cosmos 1812 3.0 03:24:56 10° NNW 03:28:38 46° W 03:28:42 46° W
COSMOS 2455 3.0 03:27:30 27° S 03:30:50 67° ESE 03:36:49 10° NNE
USA 161 3.7 03:29:37 13° ESE 03:30:55 19° ENE 03:32:47 10° NNE
Cosmos 2151 Rocket 3.6 03:29:13 31° S 03:31:21 81° E 03:35:53 10° N
Cosmos 372 Rocket 4.0 03:29:51 36° SW 03:31:55 67° WNW 03:37:05 10° N
Cosmos 1975 Rocket 3.3 03:27:53 10° NNW 03:32:03 48° W 03:32:56 41° SW
SL-16 R/B 2.9 03:31:45 29° SSW 03:34:22 44° W 03:40:17 10° NNW
ADEOS II 3.5 03:31:01 10° NNE 03:35:44 33° E 03:40:26 10° SSE
Cosmos 1536 4.3 03:33:57 12° SSE 03:37:13 34° E 03:40:50 10° NNE
Cosmos 2263 4.2 03:34:11 29° SSW 03:37:16 85° WNW 03:43:05 10° NNE
CZ-3B DEB 3.9 03:26:24 10° NW 03:39:33 77° SW 03:49:28 10° SSE
Cosmos 1602 3.6 03:43:35 33° SSW 03:45:16 75° W 03:49:13 10° N
USA 267 3.6 03:39:40 10° NE 03:46:02 56° NW 03:50:31 20° WSW
Cosmos 2082 Rocket 4.1 03:45:05 10° WNW 03:46:33 13° W 03:46:33 13° W
ASTRO E2 2.8 03:46:57 35° SW 03:48:17 55° S 03:52:12 10° E
NOSS 3-2 (C) 3.6 03:45:13 26° SW 03:48:37 61° WNW 03:54:59 10° NNE
NOSS 3-2 (A) 4.0 03:46:06 24° WSW 03:49:26 45° NW 03:55:37 10° NNE
Cosmos 158 Rocket 3.8 03:44:24 10° NNW 03:49:28 84° WSW 03:54:25 10° SSE
SL-24 R/B 4.2 03:46:05 10° N 03:50:21 66° WNW 03:53:18 23° SSW
GPS 2-05 Rocket1 4.4 03:53:29 20° S 03:53:29 20° S 03:55:08 10° SSE
Cosmos 1536 Rocket 3.6 03:50:17 10° N 03:54:47 83° E 03:59:14 10° S
MOZ.5/SAFIR/RUBIN 5/SL-8 4.0 03:56:03 17° S 03:59:28 48° W 04:04:04 10° NNW
PSLV R/B 4.2 03:56:54 10° NNE 04:00:33 56° E 04:03:57 11° S
MOS 1-B 4.3 03:54:48 10° NNE 04:00:36 87° WNW 04:05:54 13° SSW
Cosmos 2266 Rocket 4.5 03:58:28 20° SW 04:02:37 44° W 04:08:43 10° N
Cosmos 1633 3.9 04:03:18 21° WSW 04:04:12 24° W 04:07:12 10° NNW
Cosmos 2315 Rocket 4.0 03:58:00 10° N 04:04:19 88° W 04:10:32 10° S
CENTAUR R/B 2.9 04:01:24 12° S 04:06:37 57° ESE 04:12:58 10° NE
Cosmos 1048 Rocket 4.2 04:04:58 10° NNW 04:10:10 51° WSW 04:15:20 10° S
PSLV R/B 4.2 04:06:49 10° NNE 04:10:58 53° E 04:15:09 10° S
Okean 1 4.4 04:07:49 10° NNW 04:11:13 26° W 04:12:59 19° SW
Gbstr 26 Del rocket 3.5 04:10:14 17° W 04:12:39 38° NW 04:16:13 10° NNE
Resurs 1-4 Rocket 4.1 04:17:02 10° NW 04:19:24 13° WNW 04:21:45 10° W
Okean 1 Rocket 3.0 04:15:28 10° S 04:19:56 79° W 04:24:25 10° N
Landsat 4 4.1 04:18:08 10° SSE 04:21:55 67° ENE 04:25:42 10° N
Cosmos 2344 4.4 04:15:51 13° WSW 04:22:03 38° NW 04:29:45 10° NNE
CZ-4B R/B 3.6 04:19:12 10° NNE 04:24:45 69° ESE 04:30:22 10° S
CZ-4B R/B 2.5 04:22:43 10° N 04:26:24 76° WNW 04:29:58 10° SSW
BREEZE M DEB (TANK) 3.1 04:21:32 13° SW 04:27:46 73° NW 04:30:29 10° NE
Meteor 2-4 Rocket 3.6 04:22:36 10° N 04:28:13 79° W 04:33:39 10° S
Centaur D-1AR AC-40 3.6 04:19:18 10° WSW 04:30:09 31° SSW 04:34:04 10° SE
Cosmos 1441 Rocket 4.1 04:26:42 10° NNW 04:30:16 32° W 04:33:49 10° SSW
Cosmos 2251 Rocket 4.1 04:26:24 10° N 04:31:39 63° ENE 04:36:48 10° SSE
Meteor 1-11 Rocket 4.4 04:29:26 10° SW 04:34:36 39° WNW 04:40:00 10° N
Meteor 1-23 Rocket 4.3 04:32:52 10° N 04:38:42 87° W 04:44:27 10° S
Meteor 1-5 Rocket 4.4 04:35:05 10° SSW 04:40:58 65° W 04:46:54 10° N
Okean-O 4.4 04:39:57 10° NE 04:43:55 32° E 04:47:53 10° SSE
USA 81 4.4 04:45:51 10° N 04:51:07 72° E 04:56:22 10° S
Nadezhda 1 Rocket 4.3 04:45:31 10° N 04:51:36 70° E 04:57:37 10° SSE
Cosmos 1515 4.5 04:51:02 10° N 04:54:49 57° E 04:58:35 10° SSE
Okean O Rocket 2.2 04:51:02 10° N 04:55:07 39° WNW 04:59:12 10° SW
